When you browse on this site, cookies collect data to enhance your experience and personalize the content and advertising you see.
Visit our Privacy Policy to learn more. By continuing to use the site, you agree to this use of cookies and data.
  • In Lithuania
  • List of Countries
  • For 7 days
  • Water Temperature
  • Weather Map
  • Weather Widgets
  • user-avatar
    Login

    Hourly Weather Campo Grande

    Today, 10 December, Tuesday

    Time Temperature Precipitation Wind Pressure Humidity
    00:00 +23°C° 0.2 mm 1 mps 708 mmHg 93%
    01:00 +23°C° 0.2 mm 2 mps 708 mmHg 93%
    02:00 +23°C° 0 mm 2 mps 707 mmHg 94%
    03:00 +23°C° 0.3 mm 2 mps 707 mmHg 94%
    04:00 +23°C° 0.3 mm 2 mps 707 mmHg 94%
    05:00 +23°C° 0.3 mm 2 mps 707 mmHg 94%
    06:00 +24°C° 0.7 mm 2 mps 708 mmHg 90%
    07:00 +25°C° 0.7 mm 2 mps 709 mmHg 87%
    08:00 +26°C° 0 mm 1 mps 710 mmHg 83%
    09:00 +27°C° 1.3 mm 2 mps 710 mmHg 78%
    10:00 +28°C° 1.3 mm 2 mps 709 mmHg 73%
    11:00 +29°C° 1.3 mm 2 mps 709 mmHg 68%
    12:00 +30°C° 0.5 mm 2 mps 709 mmHg 65%
    13:00 +31°C° 0.5 mm 2 mps 708 mmHg 62%
    14:00 +31°C° 0.5 mm 2 mps 707 mmHg 58%
    15:00 +31°C° 0.1 mm 2 mps 707 mmHg 62%
    16:00 +30°C° 0.1 mm 2 mps 707 mmHg 65%
    17:00 +30°C° 0.1 mm 1 mps 706 mmHg 69%
    18:00 +28°C° 1.1 mm 1 mps 707 mmHg 73%
    19:00 +27°C° 1.1 mm 1 mps 707 mmHg 78%
    20:00 +24°C° 1.1 mm 0 mps 707 mmHg 82%
    21:00 +24°C° 0.4 mm 0 mps 708 mmHg 83%
    22:00 +23°C° 0.4 mm 0 mps 708 mmHg 83%
    23:00 +23°C° 0.4 mm 0 mps 708 mmHg 83%

    Tomorrow, 11 December, Wednesday

    Time Temperature Precipitation Wind Pressure Humidity
    00:00 +23°C° 1.1 mm 0 mps 707 mmHg 85%
    01:00 +23°C° 1.1 mm 0 mps 707 mmHg 86%
    02:00 +22°C° 1.1 mm 0 mps 707 mmHg 88%
    03:00 +24°C° 1.2 mm 1 mps 707 mmHg 89%
    04:00 +24°C° 1.2 mm 1 mps 707 mmHg 91%
    05:00 +23°C° 1.2 mm 2 mps 707 mmHg 93%
    06:00 +25°C° 0.9 mm 2 mps 707 mmHg 89%
    07:00 +26°C° 0.9 mm 3 mps 707 mmHg 86%
    08:00 +27°C° 0.9 mm 3 mps 708 mmHg 82%
    09:00 +28°C° 2.3 mm 3 mps 708 mmHg 79%
    10:00 +29°C° 2.3 mm 4 mps 708 mmHg 75%
    11:00 +30°C° 2.3 mm 4 mps 707 mmHg 71%
    12:00 +30°C° 1.2 mm 4 mps 707 mmHg 69%
    13:00 +31°C° 1.2 mm 3 mps 706 mmHg 66%
    14:00 +31°C° 1.2 mm 3 mps 705 mmHg 64%
    15:00 +30°C° 0.6 mm 3 mps 705 mmHg 67%
    16:00 +30°C° 0.6 mm 2 mps 705 mmHg 70%
    17:00 +29°C° 0.6 mm 1 mps 704 mmHg 73%
    18:00 +28°C° 0.6 mm 1 mps 705 mmHg 75%
    19:00 +27°C° 0.6 mm 1 mps 705 mmHg 77%
    20:00 +26°C° 0.6 mm 1 mps 705 mmHg 79%
    21:00 +26°C° 0.5 mm 1 mps 705 mmHg 81%
    22:00 +25°C° 0.5 mm 1 mps 705 mmHg 82%
    23:00 +25°C° 0.5 mm 1 mps 706 mmHg 83%

    Day after tomorrow, 12 December, Thursday

    Time Temperature Precipitation Wind Pressure Humidity
    00:00 +25°C° 1 mm 1 mps 705 mmHg 84%
    01:00 +24°C° 1 mm 1 mps 705 mmHg 86%
    02:00 +24°C° 1 mm 1 mps 705 mmHg 88%
    03:00 +24°C° 1.4 mm 1 mps 705 mmHg 89%
    04:00 +24°C° 1.4 mm 1 mps 705 mmHg 89%
    05:00 +24°C° 1.4 mm 1 mps 705 mmHg 90%
    06:00 +25°C° 1 mm 2 mps 706 mmHg 87%
    07:00 +26°C° 1 mm 3 mps 706 mmHg 84%
    08:00 +28°C° 1 mm 4 mps 707 mmHg 80%
    09:00 +28°C° 2.2 mm 4 mps 707 mmHg 77%
    10:00 +29°C° 2.2 mm 4 mps 707 mmHg 75%
    11:00 +30°C° 2.2 mm 4 mps 707 mmHg 72%
    12:00 +30°C° 0.3 mm 4 mps 706 mmHg 70%
    13:00 +30°C° 0.3 mm 3 mps 706 mmHg 68%
    14:00 +30°C° 0.3 mm 3 mps 706 mmHg 67%
    15:00 +30°C° 0 mm 2 mps 705 mmHg 68%
    16:00 +30°C° 0 mm 1 mps 705 mmHg 69%
    17:00 +30°C° 0 mm 1 mps 705 mmHg 70%
    18:00 +28°C° 0.7 mm 1 mps 705 mmHg 74%
    19:00 +27°C° 0.7 mm 1 mps 706 mmHg 77%
    20:00 +26°C° 0.7 mm 1 mps 706 mmHg 81%
    21:00 +25°C° 0.1 mm 2 mps 706 mmHg 83%
    22:00 +25°C° 0.1 mm 2 mps 707 mmHg 84%
    23:00 +24°C° 0.1 mm 2 mps 707 mmHg 86%

    13 December, Friday

    Time Temperature Precipitation Wind Pressure Humidity
    00:00 +24°C° 0 mm 2 mps 707 mmHg 86%
    01:00 +24°C° 0 mm 2 mps 706 mmHg 85%
    02:00 +24°C° 0 mm 2 mps 706 mmHg 85%
    03:00 +24°C° 0 mm 2 mps 706 mmHg 86%
    04:00 +23°C° 0 mm 2 mps 706 mmHg 88%
    05:00 +23°C° 0 mm 2 mps 706 mmHg 90%
    06:00 +24°C° 0 mm 2 mps 707 mmHg 85%
    07:00 +26°C° 0 mm 2 mps 708 mmHg 81%
    08:00 +27°C° 0 mm 2 mps 709 mmHg 76%
    09:00 +29°C° 0.1 mm 2 mps 709 mmHg 72%
    10:00 +30°C° 0.1 mm 3 mps 709 mmHg 68%
    11:00 +31°C° 0.1 mm 3 mps 709 mmHg 64%
    12:00 +31°C° 0.6 mm 2 mps 708 mmHg 64%
    13:00 +31°C° 0.6 mm 2 mps 708 mmHg 63%
    14:00 +31°C° 0.6 mm 2 mps 707 mmHg 63%
    15:00 +31°C° 0.5 mm 1 mps 707 mmHg 66%
    16:00 +31°C° 0.5 mm 1 mps 707 mmHg 68%
    17:00 +30°C° 0.5 mm 1 mps 706 mmHg 71%
    18:00 +29°C° 0.2 mm 1 mps 707 mmHg 74%
    19:00 +28°C° 0.2 mm 1 mps 707 mmHg 77%
    20:00 +26°C° 0.2 mm 1 mps 707 mmHg 81%
    21:00 +26°C° 0 mm 1 mps 707 mmHg 81%
    22:00 +26°C° 0 mm 2 mps 707 mmHg 82%
    23:00 +25°C° 0 mm 2 mps 708 mmHg 83%

    14 December, Saturday

    Time Temperature Precipitation Wind Pressure Humidity
    00:00 +25°C° 0 mm 1 mps 707 mmHg 83%
    01:00 +25°C° 0 mm 1 mps 707 mmHg 84%
    02:00 +25°C° 0 mm 1 mps 707 mmHg 85%
    03:00 +24°C° 0 mm 1 mps 707 mmHg 86%
    04:00 +24°C° 0 mm 1 mps 708 mmHg 86%
    05:00 +24°C° 0 mm 1 mps 708 mmHg 87%
    06:00 +26°C° 0.8 mm 1 mps 709 mmHg 83%
    07:00 +27°C° 0.8 mm 1 mps 709 mmHg 79%
    08:00 +28°C° 0.8 mm 1 mps 710 mmHg 75%
    09:00 +29°C° 0.2 mm 2 mps 710 mmHg 71%
    10:00 +30°C° 0.2 mm 2 mps 710 mmHg 67%
    11:00 +31°C° 0.2 mm 3 mps 710 mmHg 63%
    12:00 +31°C° 0.8 mm 3 mps 709 mmHg 64%
    13:00 +31°C° 0.8 mm 3 mps 709 mmHg 66%
    14:00 +31°C° 0.8 mm 3 mps 708 mmHg 67%
    15:00 +30°C° 0.4 mm 2 mps 708 mmHg 71%
    16:00 +30°C° 0.4 mm 2 mps 708 mmHg 74%
    17:00 +29°C° 0.4 mm 2 mps 707 mmHg 77%
    18:00 +28°C° 0.1 mm 2 mps 708 mmHg 78%
    19:00 +27°C° 0.1 mm 2 mps 708 mmHg 79%
    20:00 +26°C° 0.1 mm 3 mps 709 mmHg 80%
    21:00 +26°C° 0.2 mm 2 mps 709 mmHg 81%
    22:00 +26°C° 0.2 mm 2 mps 709 mmHg 82%
    23:00 +25°C° 0.2 mm 2 mps 709 mmHg 82%

    15 December, Sunday

    Time Temperature Precipitation Wind Pressure Humidity
    00:00 +25°C° 0 mm 2 mps 709 mmHg 83%
    01:00 +25°C° 0 mm 2 mps 708 mmHg 84%
    02:00 +25°C° 0 mm 2 mps 708 mmHg 85%
    03:00 +25°C° 0 mm 2 mps 708 mmHg 84%
    04:00 +25°C° 0 mm 2 mps 708 mmHg 83%
    05:00 +25°C° 0 mm 3 mps 708 mmHg 82%
    06:00 +26°C° 0 mm 3 mps 708 mmHg 78%
    07:00 +27°C° 0 mm 3 mps 709 mmHg 75%
    08:00 +28°C° 0 mm 4 mps 709 mmHg 71%
    09:00 +29°C° 0.5 mm 4 mps 709 mmHg 69%
    10:00 +30°C° 0.5 mm 4 mps 709 mmHg 66%
    11:00 +32°C° 0.5 mm 5 mps 709 mmHg 64%
    12:00 +32°C° 1.3 mm 4 mps 709 mmHg 64%
    13:00 +32°C° 1.3 mm 4 mps 708 mmHg 64%
    14:00 +32°C° 1.3 mm 4 mps 708 mmHg 65%
    15:00 +30°C° 0.9 mm 3 mps 707 mmHg 68%
    16:00 +29°C° 0.9 mm 2 mps 707 mmHg 72%
    17:00 +29°C° 0.9 mm 1 mps 707 mmHg 75%
    18:00 +28°C° 0.3 mm 2 mps 707 mmHg 77%
    19:00 +27°C° 0.3 mm 2 mps 707 mmHg 78%
    20:00 +26°C° 0.3 mm 3 mps 707 mmHg 80%
    21:00 +26°C° 0 mm 3 mps 707 mmHg 81%
    22:00 +26°C° 0 mm 3 mps 707 mmHg 82%
    23:00 +25°C° 0 mm 3 mps 708 mmHg 83%
    Show more